Location: Silverdale
(47.6506°N, 122.6941°W)
Time: 14:46:12
(UTC+00:00)

deb Explorer IX - Visible Passes

Search period start: 03 October 2022 00:00
Search period end: 13 October 2022 00:00
Orbit: 531 x 1064 km, 38.8° (Epoch: 02 October)

Date Brightness Start Highest point End Pass type
(mag) Time Alt. Az. Time Alt. Az. Time Alt. Az.
03 Oct ? 13:37:37 10° S 13:39:56 13° SSE 13:42:23 10° ESE visible
04 Oct ? 13:07:52 10° SSE 13:09:30 12° SSE 13:11:12 10° SE visible
07 Oct ? 13:19:42 10° SSW 13:23:12 22° SSE 13:27:05 10° ESE visible
08 Oct ? 12:49:47 11° SSW 12:52:42 20° SSE 12:56:16 10° ESE visible
09 Oct ? 12:20:57 17° S 12:22:11 19° SSE 12:25:27 10° ESE visible
10 Oct ? 11:52:03 17° SSE 11:52:03 17° SSE 11:54:38 10° ESE visible
10 Oct ? 13:33:19 10° SW 13:37:05 28° S 13:41:17 10° ESE visible
11 Oct ? 11:23:08 12° SE 11:23:08 12° SE 11:23:48 10° ESE visible
11 Oct ? 13:03:55 15° SW 13:06:32 27° S 13:10:30 10° ESE visible
12 Oct ? 12:34:58 23° SSW 12:35:57 25° S 12:39:44 10° ESE visible
